Location: *
(51.5000°N, 0.1100°W)
Time: 05:23:41
(UTC+00:00)

IDEFIX/ARIANE 42P - Pass Details

Date: 12 August 2024
Orbit: 782 x 799 km, 98.5° (Epoch: 08 September)

Event Time Altitude Azimuth Distance (km) Brightness Sun altitude
Rises 00:01:34 0° 32° (NNE) 3,284 6.7 -23.6°
Reaches altitude 10° 00:06:13 10° 70° (ENE) 2,350 5.2 -23.6°
Maximum altitude 00:07:19 11° 83° (E) 2,305 5.0 -23.6°
Drops below altitude 10° 00:08:25 10° 95° (E) 2,348 5.0 -23.6°
Enters shadow 00:09:20 - 105° (ESE) 2,446 5.0 -23.6°
